• In Kazakhstan
  • List of Countries
  • For 7 days
  • Water Temperature
  • Weather Map
  • News
  • Weather Widgets
  • user-avatar
    Login

    Hourly Weather Ipswich

    Today, 4 April, Saturday

    Time Temperature Precipitation Wind Pressure Humidity
    00:00 +4°C° 0 mm 4 mps 764 mmHg 88%
    01:00 +4°C° 0 mm 4 mps 764 mmHg 89%
    02:00 +3°C° 0 mm 3 mps 764 mmHg 89%
    03:00 +3°C° 0 mm 3 mps 764 mmHg 90%
    04:00 +3°C° 0 mm 3 mps 764 mmHg 91%
    05:00 +3°C° 0 mm 3 mps 764 mmHg 91%
    06:00 +3°C° 0 mm 3 mps 764 mmHg 90%
    07:00 +5°C° 0 mm 3 mps 764 mmHg 85%
    08:00 +7°C° 0 mm 4 mps 765 mmHg 80%
    09:00 +10°C° 0 mm 4 mps 765 mmHg 75%
    10:00 +11°C° 0 mm 4 mps 765 mmHg 72%
    11:00 +12°C° 0 mm 5 mps 765 mmHg 68%
    12:00 +13°C° 0 mm 4 mps 765 mmHg 64%
    13:00 +13°C° 0 mm 4 mps 764 mmHg 63%
    14:00 +13°C° 0 mm 5 mps 764 mmHg 63%
    15:00 +13°C° 0 mm 5 mps 764 mmHg 62%
    16:00 +10°C° 0 mm 5 mps 764 mmHg 67%
    17:00 +10°C° 0 mm 4 mps 764 mmHg 71%
    18:00 +8°C° 0 mm 4 mps 764 mmHg 76%
    19:00 +7°C° 0 mm 4 mps 764 mmHg 78%
    20:00 +6°C° 0 mm 4 mps 764 mmHg 80%
    21:00 +6°C° 0 mm 4 mps 764 mmHg 82%
    22:00 +6°C° 0 mm 4 mps 764 mmHg 83%
    23:00 +6°C° 0 mm 4 mps 764 mmHg 84%

    Tomorrow, 5 April, Sunday

    Time Temperature Precipitation Wind Pressure Humidity
    00:00 +6°C° 0 mm 4 mps 764 mmHg 85%
    01:00 +6°C° 0 mm 4 mps 763 mmHg 86%
    02:00 +6°C° 0 mm 5 mps 763 mmHg 87%
    03:00 +6°C° 0 mm 5 mps 763 mmHg 88%
    04:00 +6°C° 0 mm 5 mps 763 mmHg 88%
    05:00 +6°C° 0 mm 5 mps 762 mmHg 88%
    06:00 +5°C° 0 mm 6 mps 762 mmHg 88%
    07:00 +7°C° 0 mm 6 mps 762 mmHg 82%
    08:00 +9°C° 0 mm 7 mps 762 mmHg 77%
    09:00 +10°C° 0 mm 7 mps 762 mmHg 72%
    10:00 +11°C° 0 mm 7 mps 761 mmHg 70%
    11:00 +12°C° 0 mm 7 mps 761 mmHg 69%
    12:00 +14°C° 0 mm 7 mps 760 mmHg 67%
    13:00 +14°C° 0 mm 7 mps 760 mmHg 66%
    14:00 +15°C° 0 mm 7 mps 759 mmHg 65%
    15:00 +15°C° 0 mm 7 mps 759 mmHg 64%
    16:00 +15°C° 0 mm 7 mps 758 mmHg 68%
    17:00 +14°C° 0 mm 6 mps 758 mmHg 71%
    18:00 +13°C° 0 mm 6 mps 758 mmHg 74%
    19:00 +11°C° 0 mm 6 mps 758 mmHg 74%
    20:00 +11°C° 0 mm 6 mps 758 mmHg 75%
    21:00 +10°C° 0 mm 7 mps 758 mmHg 75%
    22:00 +10°C° 0 mm 7 mps 758 mmHg 77%
    23:00 +10°C° 0 mm 6 mps 758 mmHg 79%

    Day after tomorrow, 6 April, Monday

    Time Temperature Precipitation Wind Pressure Humidity
    00:00 +10°C° 0 mm 6 mps 758 mmHg 81%
    01:00 +10°C° 0 mm 6 mps 758 mmHg 82%
    02:00 +10°C° 0 mm 6 mps 758 mmHg 82%
    03:00 +9°C° 0 mm 6 mps 758 mmHg 83%
    04:00 +9°C° 0 mm 6 mps 758 mmHg 84%
    05:00 +9°C° 0 mm 6 mps 758 mmHg 85%
    06:00 +10°C° 0 mm 5 mps 758 mmHg 86%
    07:00 +10°C° 0.1 mm 5 mps 759 mmHg 88%
    08:00 +10°C° 0.1 mm 5 mps 760 mmHg 89%
    09:00 +12°C° 0.1 mm 4 mps 760 mmHg 91%
    10:00 +12°C° 0.5 mm 4 mps 761 mmHg 91%
    11:00 +12°C° 0.5 mm 4 mps 761 mmHg 91%
    12:00 +12°C° 0.5 mm 3 mps 762 mmHg 91%
    13:00 +13°C° 0.5 mm 3 mps 762 mmHg 86%
    14:00 +13°C° 0.5 mm 3 mps 763 mmHg 80%
    15:00 +14°C° 0.5 mm 4 mps 763 mmHg 74%
    16:00 +13°C° 0.1 mm 3 mps 764 mmHg 76%
    17:00 +13°C° 0.1 mm 3 mps 765 mmHg 78%
    18:00 +12°C° 0.1 mm 3 mps 765 mmHg 80%
    19:00 +11°C° 0 mm 3 mps 766 mmHg 82%
    20:00 +10°C° 0 mm 2 mps 767 mmHg 84%
    21:00 +8°C° 0 mm 2 mps 768 mmHg 86%
    22:00 +8°C° 0 mm 2 mps 768 mmHg 86%
    23:00 +7°C° 0 mm 2 mps 769 mmHg 86%

    7 April, Tuesday

    Time Temperature Precipitation Wind Pressure Humidity
    00:00 +7°C° 0 mm 2 mps 769 mmHg 86%
    01:00 +7°C° 0 mm 2 mps 770 mmHg 87%
    02:00 +6°C° 0 mm 2 mps 770 mmHg 87%
    03:00 +6°C° 0 mm 2 mps 770 mmHg 87%
    04:00 +6°C° 0 mm 2 mps 770 mmHg 87%
    05:00 +6°C° 0 mm 2 mps 771 mmHg 86%
    06:00 +6°C° 0 mm 2 mps 771 mmHg 86%
    07:00 +8°C° 0 mm 2 mps 771 mmHg 81%
    08:00 +10°C° 0 mm 2 mps 772 mmHg 75%
    09:00 +13°C° 0 mm 2 mps 772 mmHg 70%
    10:00 +14°C° 0 mm 2 mps 772 mmHg 67%
    11:00 +15°C° 0 mm 2 mps 772 mmHg 64%
    12:00 +16°C° 0 mm 2 mps 772 mmHg 60%
    13:00 +16°C° 0 mm 2 mps 772 mmHg 61%
    14:00 +16°C° 0 mm 2 mps 772 mmHg 61%
    15:00 +16°C° 0 mm 2 mps 771 mmHg 61%
    16:00 +15°C° 0 mm 2 mps 771 mmHg 67%
    17:00 +13°C° 0 mm 2 mps 771 mmHg 74%
    18:00 +12°C° 0 mm 2 mps 771 mmHg 81%
    19:00 +10°C° 0 mm 2 mps 771 mmHg 84%
    20:00 +9°C° 0 mm 2 mps 772 mmHg 86%
    21:00 +8°C° 0 mm 2 mps 772 mmHg 89%
    22:00 +9°C° 0 mm 1 mps 772 mmHg 90%
    23:00 +8°C° 0 mm 1 mps 772 mmHg 90%

    8 April, Wednesday

    Time Temperature Precipitation Wind Pressure Humidity
    00:00 +8°C° 0 mm 1 mps 772 mmHg 91%
    01:00 +8°C° 0 mm 1 mps 771 mmHg 91%
    02:00 +8°C° 0 mm 1 mps 771 mmHg 91%
    03:00 +8°C° 0 mm 1 mps 771 mmHg 91%
    04:00 +8°C° 0 mm 1 mps 771 mmHg 91%
    05:00 +8°C° 0 mm 1 mps 771 mmHg 92%
    06:00 +8°C° 0 mm 1 mps 771 mmHg 92%
    07:00 +10°C° 0 mm 1 mps 771 mmHg 86%
    08:00 +12°C° 0 mm 2 mps 771 mmHg 81%
    09:00 +13°C° 0 mm 2 mps 771 mmHg 75%
    10:00 +14°C° 0 mm 1 mps 771 mmHg 70%
    11:00 +16°C° 0 mm 1 mps 771 mmHg 65%
    12:00 +18°C° 0 mm 1 mps 771 mmHg 60%
    13:00 +18°C° 0 mm 1 mps 771 mmHg 59%
    14:00 +18°C° 0 mm 1 mps 770 mmHg 58%
    15:00 +17°C° 0 mm 2 mps 770 mmHg 57%
    16:00 +16°C° 0 mm 2 mps 770 mmHg 65%
    17:00 +14°C° 0 mm 2 mps 770 mmHg 72%
    18:00 +12°C° 0 mm 3 mps 770 mmHg 79%
    19:00 +10°C° 0 mm 2 mps 770 mmHg 81%
    20:00 +9°C° 0 mm 2 mps 771 mmHg 82%
    21:00 +8°C° 0 mm 2 mps 771 mmHg 84%
    22:00 +7°C° 0 mm 2 mps 771 mmHg 83%
    23:00 +7°C° 0 mm 2 mps 772 mmHg 82%

    9 April, Thursday

    Time Temperature Precipitation Wind Pressure Humidity
    00:00 +7°C° 0 mm 2 mps 772 mmHg 80%
    01:00 +6°C° 0 mm 2 mps 772 mmHg 81%
    02:00 +6°C° 0 mm 2 mps 772 mmHg 82%
    03:00 +5°C° 0 mm 3 mps 772 mmHg 82%
    04:00 +5°C° 0 mm 3 mps 772 mmHg 86%
    05:00 +5°C° 0 mm 3 mps 772 mmHg 89%
    06:00 +5°C° 0 mm 3 mps 772 mmHg 93%
    07:00 +6°C° 0 mm 4 mps 773 mmHg 87%
    08:00 +8°C° 0 mm 4 mps 773 mmHg 82%
    09:00 +10°C° 0 mm 5 mps 773 mmHg 76%
    10:00 +10°C° 0 mm 5 mps 773 mmHg 73%
    11:00 +10°C° 0 mm 5 mps 773 mmHg 70%
    12:00 +11°C° 0 mm 6 mps 773 mmHg 67%
    13:00 +10°C° 0 mm 6 mps 773 mmHg 65%
    14:00 +10°C° 0 mm 6 mps 773 mmHg 63%
    15:00 +10°C° 0 mm 6 mps 772 mmHg 61%
    16:00 +9°C° 0 mm 6 mps 772 mmHg 65%
    17:00 +8°C° 0 mm 6 mps 772 mmHg 69%
    18:00 +6°C° 0 mm 5 mps 772 mmHg 73%
    19:00 +6°C° 0 mm 5 mps 772 mmHg 76%
    20:00 +5°C° 0 mm 5 mps 772 mmHg 80%
    21:00 +3°C° 0 mm 5 mps 773 mmHg 83%
    22:00 +3°C° 0 mm 5 mps 772 mmHg 86%
    23:00 +2°C° 0 mm 5 mps 772 mmHg 88%
    Show more